Dewpoint
-1 -3 -6 -10 -13 -14 -12 -6 -1 4 6 6 7 7 7 8 8 7 6 6 7 7 11 13 14 15 16 14 13 13 16 10 9 9 8 7 7 7 6 8 8 9 9 10 12
-1 -2 -4 -8 -11 -14 -12 -7 -1 3 5 6 7 7 7 7 7 5 5 7 6 12 14 14 15 15 14 13 12 13 15 9 8 8 7 7 6 7 7 8 10 11 9 11 12
-1 -2 -3 -7 -11 -14 -12 -7 -1 3 5 6 6 7 7 7 6 8 7 7 10 13 15 14 15 15 13 12 12 12 17 9 8 8 8 7 7 7 8 9 8 11 10 12 12
-1 -2 -3 -6 -10 -14 -13 -7 -1 2 5 6 6 7 7 6 8 8 7 7 9 15 14 14 14 13 11 12 12 16 10 10 10 9 9 8 7 8 7 8 9 11 11 11 11
-2 -2 -2 -5 -8 -13 -12 -6 -1 2 4 6 6 7 6 6 7 8 6 7 12 15 13 12 12 12 13 11 11 11 10 9 10 10 9 8 9 9 9 10 11 11 11 10 10
-3 -2 -2 -4 -7 -13 -12 -6 -1 2 4 5 6 6 6 5 7 8 8 11 14 14 13 13 13 13 13 12 13 11 10 10 10 10 9 10 10 9 10 10 11 11 10 10 10
-4 -3 -2 -3 -7 -13 -11 -6 -3 1 4 5 5 5 4 5 6 9 11 14 14 14 14 13 13 14 12 12 12 11 12 9 10 11 11 10 11 11 10 11 11 11 10 9 9
-5 -3 -2 -3 -7 -13 -12 -8 -3 1 4 4 4 5 5 4 7 9 12 13 14 14 13 13 13 14 13 12 11 11 10 18 10 10 11 11 19 11 10 11 11 11 11 9 9
-6 -4 -2 -3 -7 -14 -13 -8 -3 -0 2 3 4 5 5 5 7 9 12 12 14 14 14 14 14 14 12 13 11 11 13 12 11 9 10 10 15 10 11 11 11 12 11 10 9
-7 -4 -2 -3 -8 -13 -14 -9 -4 -1 1 3 4 3 4 5 7 8 11 11 12 12 13 14 13 12 11 13 14 12 11 9 10 9 8 9 10 10 10 10 11 11 11 11 10
-7 -5 -2 -4 -8 -14 -13 -8 -2 1 1 3 4 5 5 6 7 8 10 10 11 12 13 11 18 18 8 7 9 8 7 8 6 5 8 6 7 8 10 9 10 10 11 11 11
-6 -5 -2 -4 -9 -14 -14 -2 -1 -2 1 3 4 4 5 6 7 8 9 10 11 13 9 12 15 8 7 7 8 7 8 7 4 4 7 3 3 6 8 9 9 10 10 11 11
-6 -4 -2 -4 -10 -15 -8 -4 -2 -2 -0 1 3 3 4 5 5 7 8 9 10 10 15 18 11 7 8 6 8 8 5 5 5 2 2 2 3 3 4 6 7 8 9 10 10
-5 -3 -2 -6 -11 -5 -7 -6 -4 -3 2 3 2 3 3 3 4 6 8 9 8 11 10 14 7 7 6 6 6 13 3 4 4 5 11 6 7 3 3 2 4 4 5 6 7
-4 -2 -3 -10 -2 -9 -7 -5 -3 -2 7 3 3 3 4 5 5 7 8 9 9 10 10 16 9 7 6 6 4 6 2 3 4 5 3 0 7 4 0 0 0 0 3 2 3
-3 -2 -4 -8 -15 -3 -5 -2 -3 2 8 4 3 4 5 5 6 7 7 8 9 9 8 9 6 5 6 4 4 3 3 4 3 8 16 6 7 11 10 7 -1 -2 -1 1 2
-3 -3 -5 -9 -4 -5 -2 -1 2 6 4 4 4 4 5 6 7 7 8 9 10 11 14 8 7 4 4 5 4 3 5 9 10 7 8 0 4 8 8 6 -1 -1 -1 -0 1
-3 -3 -5 -13 -2 -3 -1 0 6 4 4 3 3 3 6 5 6 7 8 9 6 7 12 7 7 3 2 2 4 3 2 5 5 5 1 -1 4 5 4 -1 -0 0 -1 -0 1
-3 -4 -2 -9 -13 -2 0 5 6 4 2 3 3 4 4 5 8 7 7 8 7 6 11 6 6 -2 -5 -5 -0 6 4 0 -2 -2 -2 -2 -2 -5 -2 -2 -2 -2 -1 -1 -0
-1 -1 -5 -4 -3 -1 1 4 4 0 0 1 5 3 5 7 7 7 7 6 5 5 4 10 8 -2 -6 -4 -3 -2 -3 -1 -1 4 3 0 2 2 -1 -2 -2 -3 -4 -3 -2
-1 -7 -5 -6 -1 -1 3 3 2 1 1 2 4 6 5 7 6 6 8 6 4 4 4 4 6 3 -3 -2 -3 -4 -3 -1 -4 -3 0 1 -0 -3 -1 -1 -3 -4 -5 -4 -2
-1 -8 -6 -4 -2 0 3 1 1 1 0 -1 1 4 5 5 5 7 7 6 4 4 4 3 4 4 -2 -4 -7 -6 -8 -7 -4 -0 -2 -0 -2 -4 -3 -3 -3 -4 -4 -2 -1
-3 -2 -5 -3 2 3 2 1 0 0 0 -2 2 2 4 6 7 5 5 5 3 3 6 3 1 0 -0 -4 -4 -2 -4 -4 -5 -5 -3 -0 -1 -5 -4 -3 -3 -2 -0 1 2
2 -4 -4 -2 -1 1 3 2 2 -1 -1 -3 -2 -1 3 5 4 6 4 -3 0 -0 5 4 -1 -0 0 -1 -3 -1 -2 -3 -2 -0 -1 -2 -2 -2 -2 -1 -1 -1 -1 1 3
3 -7 -6 -3 -3 -1 -0 1 2 2 -2 -3 -1 0 2 5 4 0 0 -2 -0 4 4 2 2 1 -1 -1 -3 -3 -3 -3 -2 -2 -1 -2 -2 -1 3 2 2 2 2 2 3
4 2 -3 -7 -7 -3 0 2 2 1 1 -0 -1 -3 -0 1 3 -1 -3 -2 -2 0 -2 -5 -0 -1 1 -2 -3 -1 -2 -1 -2 -3 -2 -2 -1 4 5 5 4 4 4 4 5
4 5 3 -7 -7 -2 -0 1 2 0 -0 -1 -1 -1 -4 -0 -0 -2 -4 -4 -4 -2 -1 -2 -1 2 3 0 0 1 -1 -0 -1 -3 -3 2 5 4 5 4 4 2 5 6 5
Wind_Speed
5 5 4 2 2 4 5 6 5 5 5 5 4 4 6 8 9 10 7 6 4 5 3 2 4 4 5 4 8 6 7 6 8 8 14 9 13 6 7 10 8 5 7 19 20
5 5 4 3 2 4 6 6 5 6 6 4 3 5 7 9 12 10 9 7 3 1 2 2 3 3 5 4 6 5 6 14 8 4 10 6 8 8 11 7 11 8 11 19 21
4 5 4 3 3 5 6 5 6 7 5 4 3 5 7 11 9 4 4 4 1 1 3 5 4 4 6 5 1 14 5 6 5 9 3 13 7 3 11 3 10 13 14 18 19
4 5 4 4 3 5 6 5 7 7 5 3 3 5 7 8 3 4 3 5 1 2 4 3 3 6 4 3 1 6 7 2 3 4 7 1 7 8 5 13 7 10 16 18 17
4 5 4 4 3 5 5 6 7 6 4 2 3 5 7 8 5 4 2 5 3 2 3 3 3 5 7 8 4 7 3 3 4 3 5 5 2 3 8 4 9 13 17 17 17
5 5 5 5 4 4 5 7 7 5 3 2 3 5 6 12 2 1 7 6 3 1 2 0 3 5 6 6 7 2 4 1 5 3 9 8 6 4 5 7 12 13 15 16 15
6 6 5 5 4 4 6 8 6 5 3 3 3 5 8 3 2 7 7 6 7 2 4 4 5 7 2 5 5 9 10 8 8 4 1 9 5 7 9 11 13 13 13 14 14
6 6 5 5 3 5 7 7 6 5 5 3 3 5 7 2 4 9 8 7 6 5 6 6 7 9 6 4 9 14 9 5 10 10 4 7 9 9 9 13 13 13 13 13 14
7 6 6 4 4 6 7 6 6 6 5 4 3 4 4 1 7 10 10 7 7 7 8 8 7 16 11 13 6 9 4 6 8 6 3 7 8 13 10 12 14 13 14 13 13
7 7 5 4 5 7 7 6 5 5 5 5 8 7 8 4 9 10 10 9 7 7 13 10 10 10 10 5 4 5 2 4 6 8 4 6 6 13 12 12 14 14 15 14 15
8 7 5 5 6 8 9 5 4 5 13 12 5 5 5 6 8 11 12 10 12 13 15 10 8 9 4 10 5 3 3 8 9 2 10 5 5 9 16 14 15 16 16 17 16
8 7 5 5 8 10 11 6 3 4 8 17 10 7 4 6 8 12 12 11 13 11 13 6 8 7 5 2 6 8 3 15 5 4 9 2 10 9 11 11 13 14 18 17 17
8 7 6 6 8 11 12 7 4 7 8 15 14 14 12 11 8 17 16 14 13 9 24 9 7 5 3 8 9 13 9 7 0 8 5 7 14 11 9 8 10 11 11 14 18
8 7 7 7 5 7 10 8 5 6 6 14 14 11 11 11 11 7 13 9 6 10 11 18 8 1 5 5 3 7 6 4 6 7 6 9 5 7 16 13 9 10 10 14 15
9 9 9 15 8 8 7 5 5 3 5 12 15 12 12 16 11 11 11 11 13 7 6 14 8 2 6 7 5 5 6 7 6 13 9 9 5 5 5 12 14 18 13 14 14
10 11 12 14 7 7 5 4 1 7 2 9 12 12 13 14 9 10 13 13 12 11 11 14 2 3 7 2 6 8 11 8 12 14 7 14 8 1 13 10 11 17 15 12 12
11 13 15 16 5 6 5 5 6 10 5 11 15 16 17 12 10 15 14 14 13 9 16 14 10 8 4 12 8 10 12 5 7 6 4 3 2 6 28 26 1 5 13 16 14
11 13 14 19 8 6 5 9 9 8 4 2 6 13 14 15 11 9 9 13 11 9 20 6 2 8 7 9 5 12 12 8 4 3 0 7 5 9 19 3 3 6 7 9 8
11 12 11 11 13 10 10 10 9 2 4 5 9 10 11 10 0 9 14 6 4 7 3 2 6 7 2 6 7 11 5 8 10 12 6 5 11 5 8 6 4 5 9 12 15
12 9 10 11 12 6 9 15 3 6 6 7 9 10 12 10 10 12 9 10 3 3 6 5 5 6 6 7 6 10 11 12 7 4 6 8 11 12 6 6 7 10 10 12 14
14 10 10 12 9 11 10 7 1 5 4 5 12 6 11 14 15 10 5 5 1 3 11 8 9 5 10 1 11 8 9 2 7 7 7 9 7 6 4 6 8 10 15 18 18
9 6 12 17 11 16 12 5 2 9 4 6 8 12 9 12 12 12 8 4 0 2 9 10 6 10 5 7 3 8 9 8 8 7 8 5 11 10 6 7 9 15 15 15 16
7 8 12 16 8 11 15 6 9 10 4 3 9 9 4 2 2 7 5 10 2 7 9 5 8 11 11 14 9 4 5 6 13 11 12 9 6 8 11 11 10 11 9 13 17
5 5 10 16 21 12 13 13 11 7 9 5 7 4 7 9 5 3 5 4 1 6 5 5 14 14 11 14 12 10 12 11 10 8 12 14 15 14 13 11 11 16 19 17 17
7 5 14 11 15 14 11 6 12 7 7 5 7 11 11 11 8 9 5 11 7 5 5 7 12 13 16 10 15 13 13 14 14 15 16 18 17 15 15 13 15 18 19 19 18
7 4 4 12 23 17 6 10 12 4 6 8 12 12 11 9 10 8 6 4 4 8 9 11 8 9 12 16 17 16 16 17 17 18 17 15 12 15 13 14 15 16 17 17 18
4 7 9 12 12 13 12 12 5 1 4 7 7 9 10 8 10 10 7 10 4 4 6 7 8 8 13 17 18 18 17 9 14 14 11 10 12 12 12 15 18 22 14 18 19
Wind_Direction
343 325 316 273 184 209 197 211 206 207 217 234 263 300 314 308 309 304 293 272 272 296 337 252 274 286 300 278 259 244 244 99 77 66 110 160 118 90 101 116 65 62 47 143 157
334 319 316 288 207 212 201 211 196 214 221 242 283 309 315 311 301 279 267 271 272 267 90 291 299 290 278 260 250 229 293 80 71 12 107 115 107 129 132 158 120 79 110 141 154
323 311 314 287 222 214 208 205 199 218 222 248 289 313 318 318 304 85 291 196 164 97 330 297 272 263 260 241 189 101 253 55 118 103 321 123 113 64 74 314 76 112 142 151 159
310 303 307 283 236 219 209 197 207 217 222 257 298 321 319 320 351 330 283 175 94 93 304 288 228 250 226 281 357 322 79 305 112 155 152 100 100 121 1 52 72 119 152 157 163
296 291 293 281 245 220 203 197 210 214 223 259 302 314 325 259 25 345 170 149 135 51 345 297 235 314 338 324 268 306 28 226 123 276 249 134 193 33 97 86 107 128 152 161 166
282 280 282 279 249 216 199 203 206 211 214 249 290 316 306 273 50 99 142 157 184 168 29 1 308 305 278 291 288 4 274 195 163 176 176 206 173 195 114 134 129 141 156 166 171
271 271 276 276 250 203 200 206 203 204 204 237 286 313 283 333 172 170 167 183 204 233 295 304 289 263 356 250 255 273 274 179 145 222 230 302 165 134 132 146 145 149 162 169 176
263 262 268 271 240 197 204 204 195 198 207 236 283 310 294 169 186 180 187 197 222 244 284 288 272 267 267 266 216 239 232 27 151 174 215 157 253 130 134 153 157 151 158 171 179
257 255 261 264 221 195 204 194 192 201 213 239 328 270 227 240 186 189 196 210 234 252 269 264 240 238 185 241 160 146 218 179 139 190 184 258 204 125 158 167 161 165 163 175 177
251 248 253 249 207 194 192 181 194 207 224 247 248 259 215 203 183 188 208 227 231 260 259 241 236 235 184 244 170 93 257 101 158 128 214 237 153 137 168 182 171 176 173 178 179
245 241 242 233 200 190 171 146 212 221 215 234 168 255 152 156 167 191 206 225 242 242 256 172 94 226 92 49 36 318 184 109 98 101 238 65 199 151 159 194 176 182 182 187 190
239 233 231 220 196 188 183 202 351 345 258 221 228 235 185 182 188 190 200 223 213 227 249 168 247 95 74 95 217 241 158 76 326 99 274 113 86 119 144 183 187 196 184 196 199
232 223 218 208 190 195 191 225 245 332 256 177 208 214 207 212 235 178 198 221 275 283 103 293 332 77 290 181 241 357 5 1 305 130 208 154 133 121 132 158 151 203 191 196 198
224 213 201 180 170 190 221 237 232 308 266 154 187 209 185 209 215 173 197 248 225 293 296 183 118 301 255 255 89 205 309 293 245 130 282 182 31 165 158 133 164 185 180 184 194
214 204 191 176 170 187 162 184 253 250 274 159 150 147 187 211 135 177 194 223 274 284 86 288 279 277 256 47 320 65 327 304 271 251 181 226 85 74 152 147 164 159 174 177 175
205 198 187 189 188 169 196 238 220 232 214 155 150 186 187 212 177 152 187 224 277 263 232 230 231 233 334 15 271 308 273 254 238 85 7 264 133 349 336 282 178 153 162 166 185
200 195 191 177 157 204 205 200 220 252 117 148 172 176 202 177 168 178 194 203 240 215 306 222 206 150 273 257 218 243 246 252 287 196 175 74 268 174 203 245 151 181 175 182 188
195 194 192 190 197 195 202 224 252 218 153 70 181 182 209 167 196 198 203 224 223 305 223 131 71 195 158 278 270 303 318 331 281 17 193 132 103 146 193 40 227 259 271 288 224
185 190 191 195 184 180 223 226 217 203 47 228 201 200 197 195 351 223 235 270 219 205 69 340 133 117 27 299 274 284 317 340 310 265 249 152 116 177 120 119 110 296 233 254 258
153 173 188 188 182 192 238 260 338 21 319 259 209 216 199 173 198 210 243 245 237 228 263 275 220 163 114 240 207 285 332 301 282 319 293 50 268 67 138 47 30 306 328 322 305
149 192 181 176 175 219 233 227 184 146 295 256 249 183 227 165 210 222 221 156 168 164 265 284 157 256 207 189 6 311 279 240 295 299 309 293 101 120 66 3 334 313 301 314 314
197 198 166 169 199 220 233 256 23 261 190 254 284 298 241 160 209 181 239 148 351 283 213 247 322 256 82 111 279 288 302 291 308 314 318 331 272 58 26 308 305 314 320 320 322
215 125 168 179 218 214 232 253 228 274 239 220 221 258 332 232 260 267 256 73 97 269 354 331 259 263 222 156 178 229 7 315 308 283 263 272 291 33 350 345 342 297 316 338 324
244 147 164 206 243 285 216 223 232 186 271 256 285 238 205 239 220 244 178 96 305 240 30 301 277 295 312 342 343 322 297 303 300 288 308 303 319 331 327 332 335 342 335 318 320
240 203 170 197 220 244 273 226 225 221 209 233 221 238 210 217 174 217 201 142 175 146 219 257 290 312 307 320 303 295 280 282 284 286 288 305 302 321 16 0 342 329 325 313 314
289 286 198 239 201 231 170 247 249 212 251 206 251 198 222 238 197 207 201 210 276 166 257 256 265 277 293 281 280 301 310 306 281 269 273 288 300 42 18 355 346 324 329 327 321
291 280 275 210 211 208 220 230 246 326 254 302 314 272 220 30 355 332 324 314 349 262 224 278 321 324 305 316 313 295 287 326 323 323 333 325 25 12 2 353 336 327 348 342 332
Height
1521 1521 1521 1520 1519 1519 1519 1520 1522 1522 1522 1522 1522 1522 1521 1520 1519 1517 1518 1517 1516 1514 1513 1515 1514 1514 1512 1509 1504 1504 1502 1491 1488 1491 1494 1498 1497 1501 1502 1505 1506 1509 1507 1511 1521
1521 1521 1520 1520 1519 1519 1519 1521 1522 1522 1522 1522 1522 1522 1521 1519 1517 1517 1516 1515 1514 1513 1515 1515 1514 1514 1509 1506 1499 1500 1501 1487 1489 1490 1492 1496 1492 1498 1499 1501 1505 1511 1512 1517 1522
1521 1521 1520 1519 1518 1518 1519 1521 1522 1522 1522 1522 1522 1522 1521 1518 1516 1515 1514 1514 1514 1514 1516 1515 1514 1513 1508 1503 1497 1494 1510 1488 1494 1493 1492 1493 1493 1496 1495 1495 1498 1507 1515 1519 1523
1520 1520 1520 1518 1518 1518 1520 1521 1521 1522 1522 1523 1522 1522 1520 1518 1512 1515 1514 1514 1514 1514 1516 1514 1512 1508 1500 1495 1497 1507 1492 1493 1497 1495 1494 1493 1494 1494 1496 1500 1503 1509 1515 1519 1523
1519 1520 1519 1518 1518 1518 1520 1521 1520 1521 1522 1523 1522 1521 1520 1518 1515 1514 1514 1514 1515 1516 1515 1513 1511 1509 1502 1496 1497 1490 1493 1495 1496 1495 1495 1495 1495 1495 1499 1503 1506 1511 1515 1519 1522
1518 1519 1518 1517 1517 1518 1520 1520 1520 1522 1522 1523 1522 1521 1520 1515 1517 1515 1516 1516 1518 1516 1515 1514 1512 1511 1506 1501 1498 1495 1493 1492 1495 1491 1491 1491 1491 1495 1500 1503 1509 1513 1516 1519 1521
1518 1518 1517 1517 1517 1518 1519 1519 1521 1522 1522 1522 1522 1521 1520 1517 1517 1517 1517 1518 1516 1516 1514 1512 1511 1510 1505 1500 1499 1495 1490 1488 1489 1495 1489 1494 1496 1494 1498 1502 1508 1512 1516 1519 1521
1517 1517 1516 1516 1517 1518 1518 1519 1521 1522 1522 1522 1522 1521 1517 1516 1517 1515 1518 1517 1516 1516 1514 1511 1509 1508 1503 1498 1494 1490 1482 1525 1487 1489 1492 1497 1516 1494 1498 1501 1507 1511 1515 1518 1520
1515 1516 1515 1516 1517 1517 1518 1519 1521 1521 1521 1521 1522 1521 1512 1515 1516 1515 1517 1517 1516 1514 1511 1508 1507 1499 1496 1493 1491 1489 1498 1491 1485 1484 1483 1483 1497 1488 1497 1499 1503 1508 1513 1516 1519
1514 1514 1515 1516 1516 1516 1518 1520 1521 1521 1521 1520 1520 1523 1515 1512 1514 1515 1515 1516 1514 1511 1506 1508 1507 1494 1489 1496 1509 1500 1498 1484 1487 1482 1482 1480 1481 1484 1493 1496 1500 1504 1509 1513 1516
1512 1513 1514 1515 1515 1516 1519 1520 1523 1522 1519 1510 1508 1509 1510 1513 1513 1514 1514 1515 1511 1506 1495 1498 1502 1513 1480 1477 1483 1477 1477 1482 1476 1480 1477 1479 1480 1477 1487 1492 1494 1499 1505 1508 1512
1511 1512 1513 1514 1515 1516 1518 1519 1517 1518 1510 1509 1510 1510 1510 1510 1510 1511 1513 1511 1502 1500 1490 1494 1506 1482 1477 1479 1480 1475 1480 1479 1481 1475 1473 1472 1478 1477 1482 1488 1492 1494 1498 1504 1508
1509 1511 1512 1514 1514 1515 1517 1519 1516 1516 1510 1501 1505 1506 1507 1509 1505 1503 1510 1506 1498 1496 1507 1523 1487 1481 1479 1476 1479 1482 1477 1480 1480 1476 1474 1473 1483 1484 1483 1486 1489 1492 1494 1498 1501
1507 1509 1511 1513 1517 1517 1517 1517 1516 1517 1506 1495 1500 1502 1504 1504 1501 1500 1504 1502 1495 1494 1492 1501 1485 1482 1477 1478 1480 1516 1475 1474 1473 1486 1515 1470 1511 1484 1477 1483 1490 1489 1493 1493 1496
1505 1508 1510 1513 1511 1516 1518 1516 1517 1517 1518 1490 1492 1496 1496 1499 1497 1499 1502 1501 1495 1489 1495 1511 1485 1480 1479 1479 1478 1483 1473 1472 1469 1467 1470 1474 1497 1490 1478 1482 1480 1481 1488 1488 1493
1504 1506 1508 1511 1512 1514 1514 1516 1517 1514 1510 1486 1487 1492 1493 1494 1491 1498 1501 1500 1493 1488 1487 1483 1481 1479 1475 1478 1478 1475 1476 1470 1463 1481 1546 1483 1491 1526 1509 1491 1472 1473 1481 1486 1489
1502 1505 1507 1508 1514 1513 1515 1517 1512 1504 1477 1483 1484 1483 1485 1486 1485 1490 1493 1494 1492 1496 1508 1478 1475 1473 1481 1479 1473 1474 1478 1514 1506 1496 1502 1469 1478 1490 1493 1479 1469 1472 1473 1478 1483
1501 1503 1505 1507 1508 1511 1515 1512 1512 1478 1477 1475 1474 1478 1483 1476 1480 1484 1484 1484 1474 1480 1484 1485 1497 1477 1476 1478 1485 1469 1469 1483 1504 1507 1482 1465 1485 1483 1473 1470 1473 1475 1476 1477 1478
1500 1503 1505 1508 1508 1510 1514 1504 1489 1475 1474 1477 1476 1480 1481 1475 1486 1483 1480 1478 1471 1472 1501 1477 1488 1475 1478 1476 1475 1486 1485 1463 1476 1460 1477 1463 1462 1455 1464 1468 1472 1474 1475 1476 1476
1500 1505 1507 1508 1509 1513 1508 1495 1476 1478 1482 1479 1482 1476 1483 1481 1490 1480 1478 1477 1471 1471 1473 1490 1499 1473 1476 1476 1475 1476 1470 1484 1470 1503 1506 1482 1480 1484 1473 1471 1473 1474 1472 1473 1473
1501 1503 1505 1507 1511 1511 1499 1481 1480 1482 1485 1480 1475 1474 1469 1476 1478 1474 1484 1474 1473 1474 1474 1466 1479 1485 1472 1477 1481 1476 1474 1470 1469 1477 1497 1500 1489 1463 1471 1473 1474 1475 1474 1473 1474
1500 1494 1503 1508 1510 1500 1489 1479 1487 1483 1482 1482 1479 1469 1467 1468 1475 1481 1475 1472 1477 1476 1479 1471 1474 1480 1472 1471 1475 1475 1478 1478 1488 1495 1476 1488 1488 1457 1465 1470 1472 1473 1474 1475 1475
1496 1498 1505 1507 1499 1489 1485 1483 1485 1482 1479 1478 1478 1473 1468 1471 1482 1473 1471 1478 1480 1478 1477 1473 1478 1484 1477 1473 1477 1476 1475 1477 1475 1472 1488 1498 1483 1455 1462 1466 1470 1472 1472 1475 1477
1493 1492 1502 1504 1494 1487 1481 1482 1481 1482 1483 1482 1476 1475 1475 1476 1473 1477 1476 1480 1483 1481 1485 1486 1476 1477 1488 1481 1473 1483 1479 1473 1476 1488 1484 1479 1473 1464 1464 1465 1467 1470 1472 1474 1474
1494 1479 1489 1494 1493 1486 1477 1477 1479 1478 1480 1480 1476 1474 1473 1477 1476 1477 1470 1477 1481 1486 1485 1481 1485 1478 1474 1472 1473 1475 1476 1475 1479 1477 1486 1476 1473 1466 1467 1471 1474 1475 1474 1473 1471
1492 1486 1488 1481 1487 1487 1486 1482 1479 1474 1480 1474 1476 1468 1467 1469 1470 1471 1468 1470 1473 1480 1478 1473 1486 1483 1488 1478 1473 1475 1468 1470 1470 1469 1468 1467 1468 1468 1477 1479 1479 1477 1474 1473 1471
1497 1494 1492 1481 1477 1483 1480 1482 1479 1478 1478 1476 1475 1471 1469 1470 1471 1469 1467 1468 1467 1475 1476 1475 1478 1486 1496 1480 1479 1489 1469 1467 1466 1463 1465 1478 1475 1478 1481 1483 1482 1477 1474 1475 1474